Tracking 28790 objects as of 18-Apr-2024
HD Live streaming from Space Station
objects crossing your sky now

STARLINK-5787

Track STARLINK-5787 now!
10-day predictions
STARLINK-5787 is classified as:


NORAD ID: 56004
Int'l Code: 2023-042U
Perigee: 564.7 km
Apogee: 567.8 km
Inclination: 43.0 °
Period: 95.8 minutes
Semi major axis: 6937 km
RCS: Unknown
Launch date: March 24, 2022
Source: United States (US)
Launch site: AIR FORCE EASTERN TEST RANGE (AFETR)
Your satellite tracking list
Your tracking list is empty




NASA's NSSDC Master Catalog

Two Line Element Set (TLE):
1 56004U 23042U   24108.44895762 -.00000959  00000-0 -55927-4 0  9993
2 56004  43.0043 211.7951 0002250 284.9692  75.0901 15.02530641 59278
Source of the keplerian elements: AFSPC